Appleton, WI

4:47 AM CDT on April 29, 2017 (GMT -0500)
Outagamie County Regional

Weather History for KATW - December, 2012

Change the Weather History Date:

Sunday, December 30, 2012

  Actual Average Record
Temperature  
Mean Temperature 16 °F -  
Max Temperature 23 °F 26 °F 51 °F (1996)
Min Temperature 10 °F 11 °F -14 °F (2013)
Degree Days  
Heating Degree Days 48    
Moisture  
Dew Point 14 °F    
Average Humidity 86    
Maximum Humidity 93    
Minimum Humidity 73    
Precipitation  
Precipitation 0.00 in - - ()
Sea Level Pressure  
Sea Level Pressure 30.07 in    
Wind  
Wind Speed 9 mph (SW)    
Max Wind Speed 17 mph    
Max Gust Speed -    
Visibility 9 miles    
Events Snow    
Averages and records for this station are not official NWS values.
T = Trace of Precipitation, MM = Missing Value Source: NWS Daily Summary

Daily Weather History Graph

Daily Weather History Graph

Search for Another Location

Airport or City:

Trip Planner

Search our weather history database for the weather conditions in past years. The results will help you decide how hot, cold, wet, or windy it might be!

Date:

Astronomy

Dec. 30, 2012 Rise Set
Actual Time 7:29 AM CST 4:24 PM CST
Civil Twilight 6:56 AM CST 4:57 PM CST
Nautical Twilight 6:19 AM CST 5:34 PM CST
Astronomical Twilight 5:44 AM CST 6:09 PM CST
Moon 7:01 PM CST (12/30) 8:33 AM CST (12/30)
Length of Visible Light 10h 01m
Length of Day
8h 54m
Waning Gibbous, 95% of the Moon is Illuminated
Dec 30
Waning Gibbous
Jan 4
Last Quarter
Jan 11
New
Jan 18
First Quarter
Jan 26
Full

Hourly Weather History & Observations

Time (CST) Temp. Windchill Dew Point Humidity Pressure Visibility Wind Dir Wind Speed Gust Speed Precip Events Conditions
12:15 AM 19.4 °F 9.5 °F 15.8 °F 86% 30.11 in 10.0 mi WSW 8.1 mph - N/A   Overcast
12:35 AM 19.4 °F 8.6 °F 15.8 °F 86% 30.11 in 10.0 mi WSW 9.2 mph - N/A   Overcast
12:55 AM 19.4 °F 9.5 °F 15.8 °F 86% 30.11 in 10.0 mi WSW 8.1 mph - N/A   Overcast
1:15 AM 19.4 °F 8.6 °F 15.8 °F 86% 30.12 in 10.0 mi WSW 9.2 mph - N/A   Overcast
1:35 AM 19.4 °F 8.6 °F 15.8 °F 86% 30.13 in 10.0 mi WSW 9.2 mph - N/A   Overcast
1:55 AM 17.6 °F 6.4 °F 15.8 °F 93% 30.13 in 10.0 mi WSW 9.2 mph - N/A Snow Light Snow
2:15 AM 17.6 °F 7.3 °F 15.8 °F 93% 30.13 in 10.0 mi WSW 8.1 mph - N/A Snow Light Snow
2:35 AM 17.6 °F 6.4 °F 15.8 °F 93% 30.13 in 10.0 mi West 9.2 mph - N/A Snow Light Snow
2:55 AM 19.4 °F 7.2 °F 14.0 °F 80% 30.14 in 5.0 mi West 11.5 mph - N/A   Overcast
3:15 AM 19.4 °F 11.5 °F 14.0 °F 80% 30.14 in 10.0 mi WSW 5.8 mph - N/A Snow Light Snow
3:35 AM 17.6 °F 7.3 °F 14.0 °F 86% 30.15 in 10.0 mi WSW 8.1 mph - N/A Snow Light Snow
3:55 AM 17.6 °F 6.4 °F 14.0 °F 86% 30.15 in 7.0 mi WSW 9.2 mph - N/A Snow Light Snow
5:15 AM 15.8 °F 5.1 °F 12.2 °F 86% 30.17 in 10.0 mi WSW 8.1 mph - N/A   Overcast
5:45 AM 15.8 °F 1.4 °F 12.2 °F 86% 30.17 in 10.0 mi West 13.8 mph - N/A   Overcast
7:45 AM 14.0 °F 2.0 °F 10.4 °F 86% 30.19 in 7.0 mi WSW 9.2 mph - N/A   Overcast
8:45 AM 12.2 °F 1.7 °F 10.4 °F 92% 30.21 in 5.0 mi WSW 6.9 mph - N/A Snow Light Snow
12:45 PM 15.8 °F 4.2 °F 8.6 °F 73% 30.17 in 10.0 mi SW 9.2 mph - N/A   Scattered Clouds
3:45 PM 15.8 °F 4.2 °F 8.6 °F 73% 30.12 in 10.0 mi SSW 9.2 mph - N/A   Scattered Clouds
4:45 PM 12.2 °F -0.2 °F 8.6 °F 85% 30.11 in 10.0 mi SSW 9.2 mph - N/A   Mostly Cloudy
5:45 PM 12.2 °F 0.7 °F 8.6 °F 85% 30.09 in 10.0 mi South 8.1 mph - N/A   Mostly Cloudy
6:45 PM 10.4 °F -0.4 °F 8.6 °F 92% 30.07 in 10.0 mi South 6.9 mph - N/A   Mostly Cloudy
7:45 PM 12.2 °F 1.7 °F 8.6 °F 85% 30.03 in 10.0 mi South 6.9 mph - N/A   Mostly Cloudy
8:45 PM 14.0 °F 3.9 °F - N/A% 29.99 in 10.0 mi South 6.9 mph - N/A   Overcast
9:45 PM 12.2 °F 4.3 °F 10.4 °F 92% 29.97 in 10.0 mi South 4.6 mph - N/A   Mostly Cloudy
9:55 PM 14.0 °F 5.1 °F 12.2 °F 93% 29.96 in 7.0 mi South 5.8 mph - N/A   Clear
10:15 PM 17.6 °F 5.7 °F 15.8 °F 93% 29.95 in 10.0 mi SSW 10.4 mph - N/A   Clear
10:35 PM 21.2 °F 8.3 °F 17.6 °F 86% 29.94 in 10.0 mi SSW 13.8 mph - N/A   Clear
10:45 PM 21.2 °F 8.9 °F 17.6 °F 86% 29.93 in 10.0 mi SSW 12.7 mph - N/A   Mostly Cloudy
10:55 PM 23.0 °F 9.6 °F 19.4 °F 86% 29.92 in 10.0 mi SSW 16.1 mph - N/A   Clear
11:15 PM 23.0 °F 9.6 °F 19.4 °F 86% 29.92 in 10.0 mi SSW 16.1 mph - N/A   Clear
11:35 PM 23.0 °F 9.2 °F 19.4 °F 86% 29.91 in 10.0 mi SW 17.3 mph - N/A   Clear
11:55 PM 23.0 °F 10.1 °F 19.4 °F 86% 29.90 in 10.0 mi SSW 15.0 mph - N/A   Clear